Burlington, IA

2:31 PM CDT on May 23, 2018 (GMT -0500)
Burlington Regional

Weather History for KBRL - January, 2013

Change the Weather History Date:

Sunday, January 13, 2013

  Actual Average Record
Temperature  
Mean Temperature 16 °F 26 °F  
Max Temperature 22 °F 34 °F 56 °F (1961)
Min Temperature 10 °F 17 °F -20 °F (1912)
Degree Days  
Heating Degree Days 49 39  
Month to date heating degree days 465 507  
Since 1 July heating degree days 2658 2693  
Cooling Degree Days 0 0  
Month to date cooling degree days 0 0  
Year to date cooling degree days 0 0  
Moisture  
Dew Point 9 °F    
Average Humidity 77    
Maximum Humidity 92    
Minimum Humidity 61    
Precipitation  
Precipitation T in 0.03 in 0.66 in (1950)
Month to date precipitation 0.61 0.54  
Year to date precipitation 0.61 0.54  
Sea Level Pressure  
Sea Level Pressure 30.15 in    
Wind  
Wind Speed 9 mph (NW)    
Max Wind Speed 17 mph    
Max Gust Speed 24 mph    
Visibility 10 miles    
Events Snow    
T = Trace of Precipitation, MM = Missing Value Source: NWS Daily Summary

Daily Weather History Graph

Daily Weather History Graph

Search for Another Location

Airport or City:

Astronomy

Jan. 13, 2013 Rise Set
Actual Time 7:27 AM CST 4:59 PM CST
Civil Twilight 6:57 AM CST 5:30 PM CST
Nautical Twilight 6:23 AM CST 6:03 PM CST
Astronomical Twilight 5:50 AM CST 6:36 PM CST
Moon 8:24 AM CST (1/13) 7:39 PM CST (1/13)
Length of Visible Light 10h 33m
Length of Day
9h 32m
Waxing Crescent, 5% of the Moon is Illuminated
Jan 13
Waxing Crescent
Jan 18
First Quarter
Jan 26
Full
Feb 3
Last Quarter
Feb 10
New

Hourly Weather History & Observations

Time (CST) Temp. Windchill Dew Point Humidity Pressure Visibility Wind Dir Wind Speed Gust Speed Precip Events Conditions
12:29 AM 21.2 °F 9.5 °F 17.6 °F 86% 29.96 in 8.0 mi NNW 11.5 mph - 0.00 in Snow Light Snow
12:53 AM 21.9 °F 11.0 °F 17.1 °F 82% 30.03 in 10.0 mi NNW 10.4 mph - 0.00 in   Overcast
1:53 AM 21.0 °F 9.9 °F 14.0 °F 74% 30.01 in 10.0 mi NNW 10.4 mph - N/A   Overcast
2:53 AM 19.9 °F 6.7 °F 12.0 °F 71% 30.05 in 10.0 mi North 13.8 mph - N/A   Overcast
3:29 AM 19.4 °F 7.2 °F 10.4 °F 68% 30.04 in 10.0 mi NW 11.5 mph 20.7 mph N/A   Overcast
3:53 AM 19.0 °F 5.0 °F 10.0 °F 68% 30.07 in 10.0 mi NNW 15.0 mph 20.7 mph N/A   Overcast
4:03 AM 17.6 °F 4.3 °F 10.4 °F 73% 30.05 in 10.0 mi NNW 12.7 mph 20.7 mph N/A   Overcast
4:49 AM 17.6 °F 5.7 °F 8.6 °F 68% 30.06 in 10.0 mi NNW 10.4 mph - N/A   Overcast
4:53 AM 18.0 °F 6.1 °F 10.0 °F 71% 30.08 in 10.0 mi NNW 10.4 mph - N/A   Overcast
5:53 AM 18.0 °F 6.1 °F 9.0 °F 68% 30.08 in 10.0 mi NNW 10.4 mph - N/A   Overcast
6:53 AM 17.1 °F 5.8 °F 10.0 °F 74% 30.12 in 10.0 mi NW 9.2 mph - N/A   Overcast
7:13 AM 17.6 °F 5.0 °F 10.4 °F 73% 30.09 in 10.0 mi NW 11.5 mph - N/A   Overcast
7:53 AM 16.0 °F 4.4 °F 7.0 °F 68% 30.15 in 10.0 mi NW 9.2 mph 19.6 mph N/A   Overcast
8:15 AM 15.8 °F 1.4 °F 6.8 °F 68% 30.11 in 10.0 mi NW 13.8 mph 20.7 mph N/A   Overcast
8:53 AM 16.0 °F 3.6 °F 7.0 °F 68% 30.16 in 10.0 mi NW 10.4 mph - N/A   Overcast
9:30 AM 15.8 °F 2.1 °F 8.6 °F 73% 30.12 in 10.0 mi NNW 12.7 mph - N/A   Overcast
9:53 AM 15.1 °F 2.5 °F 7.0 °F 70% 30.17 in 10.0 mi NW 10.4 mph - N/A   Overcast
10:53 AM 15.1 °F 0.5 °F 6.1 °F 68% 30.17 in 10.0 mi NW 13.8 mph 20.7 mph N/A   Mostly Cloudy
11:53 AM 16.0 °F 1.7 °F 7.0 °F 68% 30.15 in 10.0 mi NW 13.8 mph - N/A   Mostly Cloudy
12:06 PM 17.6 °F 4.3 °F 8.6 °F 68% 30.12 in 10.0 mi NW 12.7 mph 19.6 mph N/A   Scattered Clouds
12:51 PM 17.6 °F 2.7 °F 8.6 °F 68% 30.10 in 10.0 mi NW 16.1 mph 24.2 mph N/A   Mostly Cloudy
12:53 PM 17.1 °F 2.0 °F 7.0 °F 65% 30.13 in 10.0 mi NW 16.1 mph 24.2 mph N/A   Mostly Cloudy
1:42 PM 17.6 °F 4.3 °F 8.6 °F 68% 30.10 in 10.0 mi WNW 12.7 mph 19.6 mph N/A   Scattered Clouds
1:53 PM 18.0 °F 3.6 °F 8.1 °F 65% 30.14 in 10.0 mi WNW 15.0 mph 19.6 mph N/A   Partly Cloudy
2:53 PM 19.0 °F 8.2 °F 8.1 °F 62% 30.18 in 10.0 mi WNW 9.2 mph 17.3 mph N/A   Scattered Clouds
3:14 PM 19.4 °F 7.9 °F 8.6 °F 63% 30.16 in 10.0 mi WNW 10.4 mph - N/A   Mostly Cloudy
3:23 PM 19.4 °F 7.9 °F 8.6 °F 63% 30.16 in 10.0 mi NW 10.4 mph 17.3 mph N/A   Scattered Clouds
3:53 PM 19.4 °F 7.9 °F 8.6 °F 63% 30.17 in 10.0 mi WNW 10.4 mph - N/A   Partly Cloudy
4:53 PM 18.0 °F 8.7 °F 8.1 °F 65% 30.24 in 10.0 mi WNW 6.9 mph - N/A   Clear
5:53 PM 17.1 °F 6.6 °F 7.0 °F 65% 30.26 in 10.0 mi WNW 8.1 mph - N/A   Clear
6:53 PM 16.0 °F 8.8 °F 7.0 °F 68% 30.28 in 10.0 mi WNW 4.6 mph - N/A   Clear
7:53 PM 15.1 °F 6.4 °F 7.0 °F 70% 30.30 in 10.0 mi NW 5.8 mph - N/A   Clear
8:53 PM 12.9 °F 6.9 °F 7.0 °F 77% 30.30 in 10.0 mi NW 3.5 mph - N/A   Clear
9:53 PM 12.9 °F - 7.0 °F 77% 30.31 in 10.0 mi Calm Calm - N/A   Clear
10:53 PM 12.0 °F 5.9 °F 6.1 °F 77% 30.34 in 10.0 mi WNW 3.5 mph - N/A   Clear
11:53 PM 12.2 °F 4.3 °F 6.8 °F 79% 30.29 in 10.0 mi NW 4.6 mph - N/A   Clear